This is the latest recevied weather packets stored in our database for station/object K6CED. If no packets are shown the sender has not sent any weather packets the latest 10 day(s).
| Time | Temp. | Humidity | Pressure | Rain* | Wind** | Luminosity | Snow |
|---|---|---|---|---|---|---|---|
| 1778013820 | 18.33° C | 54% | 1016.6 hPa | 0 mm | - | 958 W/m² | - |
| 1778013517 | 17.78° C | 56% | 1017 hPa | 0 mm | - | 1012 W/m² | - |
| 1778013213 | 17.22° C | 57% | 1016.5 hPa | 0 mm | - | 361 W/m² | - |
| 1778012910 | 17.22° C | 57% | 1016.6 hPa | 0 mm | - | 323 W/m² | - |
| 1778012606 | 17.22° C | 59% | 1017 hPa | 0 mm | - | 455 W/m² | - |
| 1778012303 | 17.22° C | 58% | 1017 hPa | 0 mm | - | 307 W/m² | - |
| 1778012000 | 17.22° C | 58% | 1017 hPa | 0 mm | - | 392 W/m² | - |
| 1778011699 | 17.22° C | 57% | 1017.1 hPa | 0 mm | - | 333 W/m² | - |
| 1778011395 | 17.22° C | 56% | 1017 hPa | 0 mm | - | 333 W/m² | - |
| 1778011090 | 17.22° C | 57% | 1017.2 hPa | 0 mm | - | 350 W/m² | - |
| 1778010788 | 17.78° C | 56% | 1017.1 hPa | 0 mm | - | 1140 W/m² | - |
| 1778010485 | 17.78° C | 57% | 1017.2 hPa | 0 mm | - | 1035 W/m² | - |
| 1778010182 | 17.78° C | 59% | 1017.4 hPa | 0 mm | - | 1033 W/m² | - |
| 1778009877 | 16.67° C | 62% | 1017.3 hPa | 0 mm | - | 1049 W/m² | - |
| 1778009575 | 16.67° C | 60% | 1017.4 hPa | 0 mm | - | 239 W/m² | - |
| 1778009273 | 16.67° C | 62% | 1017.4 hPa | 0 mm | - | 1126 W/m² | - |
| 1778008971 | 16.67° C | 63% | 1017.4 hPa | 0 mm | - | 250 W/m² | - |
| 1778008669 | 16.11° C | 63% | 1017.4 hPa | 0 mm | - | 1105 W/m² | - |
| 1778008367 | 16.11° C | 63% | 1017.3 hPa | 0 mm | - | 318 W/m² | - |
| 1778008063 | 16.11° C | 64% | 1017.5 hPa | 0 mm | - | 382 W/m² | - |
| 1778007758 | 15.56° C | 64% | 1017.3 hPa | 0 mm | - | 174 W/m² | - |
| 1778007454 | 16.11° C | 62% | 1017.3 hPa | 0 mm | - | 100 W/m² | - |
| 1778007151 | 15.56° C | 61% | 1017.2 hPa | 0 mm | - | 139 W/m² | - |
| 1778006847 | 16.11° C | 60% | 1017.3 hPa | 0 mm | - | 114 W/m² | - |
| 1778006545 | 16.11° C | 61% | 1017.4 hPa | 0 mm | - | 130 W/m² | - |
* Rain latest hour (hover to see other rain measurements)
** Current wind speed in m/s (hover to see current wind gust speed)